DW9866 Weather Reports


time (UTC)temp
C
wind
direction
speed
KPH
gust
KPH
rain 1hr
cm
rain 24hr
cm
rain mn
cm
humidity
%
barometer
mb
20260507000030 6 208 20.9 38.6 0.00 0.91 0.91 100 1007.1
20260506234508 6 208 20.9 38.6 0.00 0.91 0.91 100 1006.9
20260506233043 6 207 20.9 43.5 0.00 0.91 0.91 100 1006.8
20260506231522 6 206 24.1 46.7 0.00 0.91 0.91 100 1006.7
20260506230101 6 206 27.4 43.5 0.00 0.91 0.91 99 1006.3
20260506224546 7 207 24.1 43.5 0.00 0.91 0.91 99 1006.0
20260506223016 7 207 19.3 35.4 0.00 0.91 0.91 99 1005.9
20260506221601 8 208 19.3 38.6 0.00 0.91 0.91 99 1005.6
20260506220045 9 207 14.5 27.4 0.00 0.91 0.91 99 1005.4
20260506214517 11 204 12.9 29.0 0.00 0.91 0.91 97 1005.1
20260506213053 13 204 6.4 14.5 0.00 0.91 0.91 100 1004.6
20260506211531 13 204 4.8 12.9 0.00 0.91 0.91 100 1004.3
20260506210010 13 204 6.4 20.9 0.00 0.91 0.91 100 1004.1
20260506204548 13 204 6.4 16.1 0.00 1.19 0.91 100 1004.0
20260506203026 13 204 6.4 17.7 0.00 1.19 0.91 100 1003.9
20260506201604 13 204 4.8 14.5 0.00 1.19 0.91 100 1003.9
20260506200046 12 204 4.8 14.5 0.00 1.19 0.91 100 1004.0
20260506194531 12 204 4.8 16.1 0.00 1.35 0.91 100 1004.1
20260506193105 12 204 8.0 19.3 0.00 1.35 0.91 100 1004.1
20260506191540 12 204 6.4 24.1 0.00 1.35 0.91 100 1004.1
20260506190017 12 204 8.0 20.9 0.00 1.35 0.91 100 1004.0
20260506184606 12 204 9.7 19.3 0.00 1.55 0.91 100 1004.2
20260506183042 12 204 9.7 24.1 0.03 1.55 0.91 100 1004.1
20260506181519 12 204 11.3 27.4 0.10 1.55 0.91 100 1004.2
20260506180058 12 204 12.9 25.7 0.13 1.55 0.91 99 1004.2
20260506174534 12 204 14.5 25.7 0.15 1.60 0.91 99 1004.2
20260506173018 12 204 12.9 25.7 0.13 1.55 0.86 99 1004.1
20260506171558 12 204 12.9 27.4 0.10 1.50 0.81 99 1004.3
20260506170029 12 204 11.3 24.1 0.10 1.45 0.79 99 1004.2
20260506164514 12 204 11.3 25.7 0.10 1.50 0.76 99 1004.1
20260506163044 12 204 14.5 30.6 0.10 1.45 0.71 99 1004.0
20260506161521 12 204 12.9 27.4 0.15 1.42 0.71 99 1004.0
20260506160113 12 204 12.9 25.7 0.23 1.42 0.69 99 1003.9
20260506154540 12 204 17.7 32.2 0.28 1.40 0.66 99 1004.1
20260506153014 12 204 16.1 30.6 0.28 1.37 0.64 99 1004.2
20260506151601 12 204 16.1 29.0 0.28 1.30 0.56 98 1004.4
20260506150039 12 204 16.1 30.6 0.23 1.19 0.46 98 1004.2
20260506144516 12 204 14.5 29.0 0.23 1.12 0.38 98 1004.2
20260506143054 12 204 20.9 37.0 0.23 1.09 0.36 97 1004.2
20260506141534 12 204 16.1 35.4 0.18 1.02 0.28 97 1004.2
20260506140010 12 204 17.7 38.6 0.15 0.97 0.23 97 1004.3
20260506134548 12 204 17.7 35.4 0.10 0.89 0.15 97 1004.3
20260506133027 12 204 19.3 35.4 0.10 0.86 0.13 96 1004.7
20260506131513 12 204 17.7 37.0 0.10 0.84 0.10 95 1004.8
20260506130048 12 204 19.3 33.8 0.08 0.81 0.08 94 1005.1
20260506124522 12 204 17.7 30.6 0.05 0.79 0.05 93 1005.2
20260506123100 12 204 19.3 33.8 0.03 0.76 0.03 89 1004.9
20260506121536 13 204 20.9 37.0 0.00 0.71 0.00 86 1004.9
20260506120019 13 204 17.7 32.2 0.00 0.71 0.00 83 1004.9
20260506114600 14 204 20.9 35.4 0.00 0.71 0.00 79 1005.0
20260506113037 14 204 17.7 33.8 0.00 0.71 0.00 77 1004.9
20260506111514 15 204 17.7 37.0 0.00 0.71 0.00 75 1004.7
20260506104534 15 204 16.1 38.6 0.00 0.71 0.00 74 1004.6
20260506103035 15 204 12.9 35.4 0.00 0.71 0.00 73 1004.4
20260506101509 15 204 19.3 38.6 0.00 0.71 0.00 71 1004.3
20260506100056 15 204 17.7 27.4 0.00 0.71 0.00 68 1004.2
20260506094545 15 204 16.1 27.4 0.00 0.71 0.00 67 1004.3
20260506093011 15 204 16.1 32.2 0.00 0.71 0.00 66 1004.6
20260506091550 15 204 16.1 33.8 0.00 0.71 0.00 65 1004.6
20260506090035 15 204 14.5 29.0 0.00 0.71 0.00 63 1004.8
20260506084516 16 204 11.3 25.7 0.00 0.71 0.00 62 1004.8
20260506083109 16 204 16.1 32.2 0.00 0.71 0.00 61 1004.9
20260506081554 16 204 19.3 33.8 0.00 0.71 0.00 59 1004.8
20260506073059 16 204 20.9 40.2 0.00 0.71 0.00 56 1004.9
20260506071559 16 204 19.3 30.6 0.00 0.71 0.00 55 1005.1
20260506061556 17 204 19.3 37.0 0.00 0.71 0.00 53 1005.5
20260506044541 17 204 24.1 41.8 0.00 0.71 0.00 49 1006.2
20260506043032 17 204 16.1 33.8 0.00 0.71 0.00 49 1006.2
20260506041535 17 204 16.1 27.4 0.00 0.71 0.00 49 1006.4
20260506040029 17 204 16.1 29.0 0.00 0.71 0.00 49 1006.5
20260506034518 17 204 17.7 32.2 0.00 0.71 0.71 50 1006.5
20260506033016 17 204 12.9 29.0 0.00 0.71 0.71 50 1006.6
20260506031508 18 204 14.5 27.4 0.00 0.71 0.71 49 1006.7
20260506030046 18 204 14.5 30.6 0.00 0.71 0.71 49 1006.6
20260506024540 18 204 17.7 35.4 0.00 0.71 0.71 49 1006.6
20260506023003 18 204 19.3 32.2 0.00 0.71 0.71 49 1006.7
20260506021547 18 204 16.1 29.0 0.00 0.71 0.71 48 1006.7
20260506020026 19 204 14.5 25.7 0.00 0.71 0.71 47 1006.9
20260506014504 19 204 12.9 24.1 0.00 0.71 0.71 47 1006.9
20260506013043 20 204 9.7 24.1 0.00 0.71 0.71 45 1006.7
20260506011518 20 204 16.1 33.8 0.00 0.71 0.71 45 1006.4
20260506010056 20 204 12.9 24.1 0.00 0.71 0.71 45 1006.3
20260506004537 20 204 9.7 20.9 0.00 0.71 0.71 45 1006.3
20260506003015 20 204 9.7 20.9 0.00 0.71 0.71 45 1006.3
20260506001551 20 204 6.4 25.7 0.00 0.71 0.71 44 1006.3